Tracking 19794 objects as of 23-Jul-2019
HD Live streaming from Space Station
objects crossing your sky now

IUS R/B(2)

Track IUS R/B(2) now!


NORAD ID: 25869
Int'l Code: 1999-040D
Perigee: 1,500.5 km
Apogee: 71,833.8 km
Inclination: 36.3 °
Period: 1,480.9 minutes
Semi major axis: 43038 km
RCS: 4.4547 m2 (large)
Launch date: July 23, 1999
Source: United States (US)
Launch site: AIR FORCE EASTERN TEST RANGE (AFETR)

Note: This is a ROCKET BODY
aabbcc
Your satellite tracking list
Your tracking list is empty




NASA's NSSDC Master Catalog

Two Line Element Set (TLE):
1 25869U 99040D   19202.77528921 -.00000502 +00000-0 +76202-2 0  9994
2 25869 036.2855 077.6593 8171038 030.2281 358.4961 00.97234966071013
Source of the keplerian elements: AFSPC